User: anonymous   Login
Location: Cheching
(60.0667°N, 164.2167°W)
Time: 12:38:07
(UTC+00:00)
Language:

DX 1 - Orbit

View from above orbital plane
View from above orbital plane
View from above satellite
View from above satellite

Ground track
Ground track

The orbit data is extracted from the following two-line orbital elements,

1 40071U 14037C   21138.12585268  .00000152  00000-0  26929-4 0  9999
2 40071  98.4544 341.1065 0009179 137.8612 222.3305 14.81491232370802
Epoch (UTC): 18 May 2021 03:01:13
Eccentricity: 0.0009179
inclination: 98.4544°
perigee height: 618 km
apogee height: 631 km
right ascension of ascending node: 341.1065°
argument of perigee: 137.8612°
revolutions per day: 14.81491232
mean anomaly at epoch: 222.3305°
orbit number at epoch: 37080

The dashed part of the orbit path shows where the satellite is in the earth's shadow,  

DLR